Погода в Новом Леушине

Россия / Ивановская область     56°48′30″N   40°30′39″E
темп.,
°C
ветер,
м/с
пор.,
м/с
влажн.,
%
обл.,
%
осадки,
мм/ч
давл.,
гПа
погр.,
м
18 мая, вт
вт1800:00+17вюв399763 0.0 1013169
03:00+15вюв3109436 0.0 1013197
06:00+16вюв398678 0.0 1012181
09:00+23юв495011 0.0 1012426
12:00+28юв5103579 0.0 10121728
15:00+29юв5113532 0.0 10123097
18:00+25вюв5114831 0.0 1011753
21:00+21вюв515655 0.0 1011509
19 мая, ср
ср1900:00+18вюв414755 0.0 1011360
03:00+18вюв517723 0.0 1010469
06:00+18вюв514695 0.0 1010439
09:00+23юв512512 0.0 1011751
12:00+26юв5104025 0.0 10101315
15:00+28юв513405 0.0 10093159
18:00+25юв6125283 0.0 10091537
21:00+22вюв614675 0.1 1009788
20 мая, чт
чт2000:00+19вюв4147717 0.0 1009696
03:00+18вюв414777 0.1 1009457
06:00+16вюв4128544 0.4 1008559
09:00+21ююв5865100 0.4 10081049
12:00+23ююв61054100 0.1 10081880
15:00+21ююв6126058 0.6 10081614
18:00+19ююв5116516 0.4 10071566
21:00+15ююв310785 0.4 1009387
21 мая, пт
пт2100:00+12ююв3993100 0.0 1009265
03:00+11ю2798100 0.0 1009190
06:00+13ююз258815 0.0 1009265
09:00+15юз357066 0.0 1010665
12:00+17зюз456031 0.0 10101086
15:00+15зюз4675100 0.1 1011617
18:00+14зсз4781100 0.5 1012775
21:00+11з25955 0.5 1014117
22 мая, сб
сб2200:00+10з259787 0.0 1016101
03:00+9зюз2595100 0.0 101784
06:00+11з1384100 0.0 1018112
09:00+17юв005779 0.0 1019526
12:00+20ююз2240100 0.0 10192094
15:00+20ююз3343100 0.0 10192104
18:00+18ю2363100 0.0 1019214
21:00+13ююз2280100 0.0 101912